K0CPM-2 Weather Reports


time (UTC)temp
F
wind
direction
speed
knots
gust
knots
rain 1hr
in
rain 24hr
in
rain mn
in
humidity
%
barometer
mb
20260504034551 64 121 0.0 1.7 0.00 0.00 0.00 71 1016.5
20260504033045 65 121 0.0 2.6 0.00 0.00 0.00 67 1016.6
20260504031551 65 124 0.0 0.9 0.00 0.00 0.00 68 1016.5
20260504030101 65 125 0.0 1.7 0.00 0.00 0.00 65 1016.5
20260504024544 66 141 0.9 2.6 0.00 0.00 0.00 61 1016.3
20260504023044 67 132 0.0 2.6 0.00 0.00 0.00 58 1016.3
20260504021547 67 123 0.9 2.6 0.00 0.00 0.00 56 1016.2
20260504020041 66 129 0.0 1.7 0.00 0.00 0.00 59 1016.0
20260504014541 65 122 0.9 4.3 0.00 0.00 0.00 64 1015.8
20260504013047 64 149 0.0 0.0 0.00 0.00 0.00 58 1015.6
20260504011541 65 149 0.0 0.0 0.00 0.00 0.00 53 1015.5
20260504010050 67 149 0.0 0.0 0.00 0.00 0.00 50 1015.5
20260504004545 69 149 0.0 0.0 0.00 0.00 0.00 46 1015.4
20260504003039 71 150 0.0 0.0 0.00 0.00 0.00 44 1015.2
20260504001541 72 158 0.0 0.0 0.00 0.00 0.00 42 1015.2
20260504000038 73 120 0.0 1.7 0.00 0.00 0.00 41 1015.1
20260503234540 74 130 0.0 1.7 0.00 0.00 0.00 40 1015.2
20260503233035 76 149 0.0 1.7 0.00 0.00 0.00 40 1015.3
20260503231534 78 146 0.0 1.7 0.00 0.00 0.00 36 1015.5
20260503230039 79 145 0.0 2.6 0.00 0.00 0.00 36 1015.5
20260503224532 79 121 0.0 2.6 0.00 0.00 0.00 34 1015.6
20260503223031 79 179 0.0 1.7 0.00 0.00 0.00 34 1015.6
20260503221532 80 122 0.9 3.5 0.00 0.00 0.00 34 1015.8
20260503220034 80 181 0.0 1.7 0.00 0.00 0.00 35 1015.8
20260503214536 79 137 0.9 3.5 0.00 0.00 0.00 35 1016.0
20260503213032 80 188 0.0 3.5 0.00 0.00 0.00 35 1016.3
20260503211523 80 110 0.9 3.5 0.00 0.00 0.00 33 1016.5
20260503210021 80 158 0.0 1.7 0.00 0.00 0.00 33 1016.7
20260503204526 79 240 0.9 3.5 0.00 0.00 0.00 35 1016.9
20260503203020 80 127 0.9 2.6 0.00 0.00 0.00 32 1017.0
20260503201518 79 149 0.9 3.5 0.00 0.00 0.00 33 1017.3
20260503200017 79 134 0.9 3.5 0.00 0.00 0.00 33 1017.5
20260503194516 78 173 0.0 5.2 0.00 0.00 0.00 36 1017.6
20260503193016 79 114 0.9 4.3 0.00 0.00 0.00 35 1017.9
20260503191515 79 177 0.9 5.2 0.00 0.00 0.00 34 1018.2
20260503190017 79 186 0.9 4.3 0.00 0.00 0.00 33 1018.4
20260503184514 79 173 0.9 3.5 0.00 0.00 0.00 35 1018.6
20260503183012 79 127 0.0 4.3 0.00 0.00 0.00 34 1018.6
20260503181523 78 177 0.0 2.6 0.00 0.00 0.00 34 1018.6
20260503180015 77 149 0.9 3.5 0.00 0.00 0.00 35 1018.9
20260503174506 77 183 0.9 3.5 0.00 0.00 0.00 34 1019.2
20260503173006 78 143 0.0 2.6 0.00 0.00 0.00 34 1019.6
20260503171505 77 228 0.9 5.2 0.00 0.00 0.00 34 1019.8
20260503081548 58 155 0.0 0.0 0.00 0.01 0.00 70 1017.3
20260503071537 62 155 0.0 0.0 0.00 0.23 0.00 60 1016.8
20260503054533 65 127 0.9 3.5 0.00 0.63 0.00 54 1016.6
20260503053022 66 160 0.0 2.6 0.00 0.63 0.00 53 1016.4
20260503051523 65 167 0.0 4.3 0.00 0.63 0.00 54 1016.4
20260503050017 66 197 0.0 4.3 0.00 0.63 0.00 53 1016.6
20260503044516 66 183 0.0 3.5 0.00 0.67 0.63 54 1016.4
20260503043015 66 218 0.0 6.1 0.00 0.67 0.63 52 1016.3
20260503041513 67 149 0.0 5.2 0.00 0.67 0.63 51 1016.1
20260503040024 67 170 0.9 7.0 0.00 0.67 0.63 51 1016.1